GW5441 Weather Reports


Display with metric or nautical units.
time (UTC)temp
F
wind
direction
speed
MPH
gust
MPH
rain 1hr
in
rain 24hr
in
rain mn
in
humidity
%
barometer
mb
20260506211034 50 31 1.0 3.0 0.03 1.66 1.59 93 1012.0
20260506210534 50 355 1.0 3.0 0.03 1.66 1.59 93 1012.4
20260506210048 50 327 1.0 4.0 0.03 1.66 1.59 94 1012.5
20260506205535 50 46 1.0 4.0 0.03 1.73 1.59 94 1012.3
20260506205035 50 42 2.0 4.0 0.04 1.73 1.59 94 1012.3
20260506204558 50 41 1.0 2.0 0.04 1.72 1.59 94 1012.3
20260506204038 50 0 0.0 3.0 0.03 1.71 1.58 94 1012.3
20260506203535 50 340 1.0 3.0 0.03 1.70 1.57 93 1012.3
20260506203045 50 0 0.0 4.0 0.03 1.70 1.56 93 1012.1
20260506202535 50 343 1.0 4.0 0.04 1.70 1.56 93 1011.9
20260506202035 50 325 0.0 3.0 0.05 1.70 1.56 93 1011.8
20260506201544 50 0 0.0 3.0 0.06 1.70 1.56 93 1011.8
20260506201038 50 317 0.0 3.0 0.05 1.69 1.55 92 1011.8
20260506200534 50 319 0.0 3.0 0.05 1.69 1.55 92 1011.9
20260506195535 51 35 1.0 8.0 0.05 1.72 1.55 92 1011.7
20260506195036 50 115 1.0 8.0 0.05 1.72 1.55 92 1011.7
20260506194550 51 328 1.0 5.0 0.07 1.71 1.54 93 1011.5
20260506194035 51 0 0.0 5.0 0.10 1.71 1.54 93 1011.3
20260506193537 51 9 3.0 5.0 0.13 1.70 1.53 92 1011.3
20260506193047 51 42 3.0 5.0 0.14 1.70 1.53 92 1011.4
20260506192538 51 45 1.0 3.0 0.13 1.69 1.51 93 1011.3
20260506192038 51 14 1.0 3.0 0.12 1.68 1.51 93 1011.1
20260506191553 51 346 1.0 5.0 0.11 1.67 1.50 92 1011.0
20260506191035 51 355 2.0 5.0 0.11 1.67 1.50 92 1010.8
20260506190535 52 15 2.0 4.0 0.11 1.67 1.50 92 1010.7
20260506190048 52 11 1.0 2.0 0.11 1.66 1.49 92 1010.8
20260506185534 52 0 0.0 1.0 0.11 1.70 1.49 92 1010.7
20260506185041 52 0 0.0 5.0 0.10 1.69 1.48 92 1010.5
20260506184550 52 0 0.0 5.0 0.07 1.66 1.46 92 1010.5
20260506184033 53 279 1.0 5.0 0.05 1.64 1.44 92 1010.4
20260506183535 53 14 1.0 5.0 0.01 1.60 1.40 91 1010.1
20260506183102 53 65 1.0 4.0 0.00 1.59 1.39 91 1010.1
20260506182534 53 19 3.0 4.0 0.00 1.59 1.38 90 1010.4
20260506182034 53 107 0.0 2.0 0.00 1.59 1.38 90 1010.2
20260506181558 53 131 0.0 3.0 0.00 1.59 1.38 90 1010.0
20260506181036 54 102 0.0 6.0 0.00 1.59 1.38 90 1009.8
20260506180537 54 0 1.0 6.0 0.00 1.59 1.38 89 1009.7
20260506180051 54 0 1.0 3.0 0.00 1.59 1.38 89 1009.6
20260506175539 54 110 0.0 2.0 0.00 1.62 1.38 89 1009.5
20260506175034 54 110 0.0 2.0 0.00 1.62 1.38 88 1009.4
20260506174549 54 0 0.0 2.0 0.00 1.62 1.38 88 1009.3
20260506174035 54 21 0.0 2.0 0.00 1.62 1.38 86 1009.5
20260506173535 54 0 0.0 2.0 0.00 1.62 1.38 86 1009.6
20260506173055 54 135 0.0 2.0 0.00 1.62 1.38 86 1009.4
20260506172535 55 130 1.0 2.0 0.00 1.62 1.38 87 1009.4
20260506172035 55 0 0.0 3.0 0.00 1.62 1.38 86 1009.5
20260506171550 55 97 0.0 3.0 0.00 1.62 1.38 87 1009.5
20260506171035 55 0 0.0 4.0 0.00 1.62 1.38 88 1009.5
20260506170534 55 0 1.0 4.0 0.00 1.62 1.38 89 1009.5
20260506170053 55 155 1.0 3.0 0.00 1.62 1.38 90 1009.4
20260506165538 54 196 0.0 2.0 0.00 1.64 1.38 90 1009.4
20260506165036 55 196 0.0 2.0 0.00 1.64 1.38 90 1009.5
20260506164551 54 175 0.0 4.0 0.00 1.64 1.38 90 1009.5
20260506164034 54 0 0.0 4.0 0.00 1.64 1.38 89 1009.5
20260506163535 55 171 1.0 5.0 0.00 1.64 1.38 89 1009.5
20260506163054 55 142 1.0 5.0 0.00 1.64 1.38 88 1009.4
20260506162535 55 144 1.0 4.0 0.00 1.64 1.38 90 1009.1
20260506162035 55 0 1.0 5.0 0.00 1.64 1.38 89 1009.1
20260506161603 55 167 1.0 5.0 0.00 1.64 1.38 90 1009.0
20260506161034 55 0 1.0 5.0 0.00 1.64 1.38 90 1009.1
20260506160535 55 232 2.0 5.0 0.00 1.64 1.38 94 1009.2
20260506160048 54 203 0.0 3.0 0.00 1.64 1.38 96 1009.2
20260506155534 53 229 0.0 3.0 0.00 1.65 1.38 96 1009.5
20260506155034 52 0 0.0 3.0 0.00 1.65 1.38 96 1009.4
20260506154548 52 0 0.0 3.0 0.00 1.65 1.38 96 1009.4
20260506154035 52 0 0.0 2.0 0.00 1.65 1.38 95 1009.5
20260506153534 51 0 0.0 2.0 0.00 1.65 1.38 95 1009.5
20260506153045 51 0 0.0 3.0 0.00 1.65 1.38 96 1009.5
20260506152535 51 0 0.0 3.0 0.00 1.65 1.38 95 1009.7
20260506152038 51 0 0.0 3.0 0.00 1.65 1.38 96 1009.7
20260506151602 51 0 0.0 4.0 0.00 1.65 1.38 95 1009.7
20260506151034 51 0 0.0 5.0 0.00 1.65 1.38 96 1009.7
20260506150535 51 225 1.0 5.0 0.00 1.65 1.38 95 1009.7
20260506150046 51 243 0.0 3.0 0.00 1.65 1.38 95 1009.6
20260506145535 51 0 1.0 3.0 0.00 1.65 1.38 95 1009.6
20260506145034 51 124 0.0 3.0 0.00 1.65 1.38 95 1009.6
20260506144551 51 0 1.0 5.0 0.00 1.65 1.38 95 1009.6
20260506144041 51 82 1.0 5.0 0.00 1.65 1.38 95 1009.7
20260506143535 51 113 0.0 3.0 0.00 1.65 1.38 96 1009.9
20260506143057 51 0 0.0 4.0 0.00 1.65 1.38 95 1009.9
20260506142534 52 123 1.0 4.0 0.00 1.65 1.38 96 1009.9
20260506142034 52 128 1.0 4.0 0.00 1.65 1.38 96 1010.0
20260506141547 51 110 1.0 3.0 0.00 1.65 1.38 96 1010.0
20260506141036 51 0 0.0 2.0 0.00 1.65 1.38 96 1009.9
20260506140536 50 0 0.0 6.0 0.01 1.65 1.38 96 1010.1
20260506140056 50 0 1.0 6.0 0.03 1.65 1.38 95 1010.0
20260506135536 50 167 2.0 6.0 0.03 1.66 1.38 95 1010.3
20260506135035 50 0 1.0 3.0 0.05 1.66 1.38 95 1010.3
20260506134545 49 0 0.0 5.0 0.06 1.66 1.38 95 1010.4
20260506134035 49 24 2.0 7.0 0.10 1.66 1.38 95 1010.5
20260506133535 49 37 2.0 9.0 0.17 1.66 1.38 95 1010.6
20260506133048 49 76 3.0 9.0 0.25 1.66 1.38 94 1010.6
20260506132534 49 59 4.0 9.0 0.31 1.66 1.38 94 1010.6
20260506132038 49 100 3.0 7.0 0.34 1.66 1.37 94 1010.6
20260506131545 49 31 1.0 7.0 0.35 1.66 1.37 94 1010.3
20260506131039 49 315 2.0 13.0 0.35 1.66 1.37 95 1010.0
20260506130534 49 41 6.0 13.0 0.42 1.65 1.37 94 1009.2
20260506125536 49 300 1.0 10.0 0.53 1.63 1.34 94 1010.4
20260506125034 49 220 4.0 10.0 0.53 1.62 1.33 93 1010.1
20260506124550 50 233 2.0 8.0 0.54 1.60 1.31 94 1009.6
20260506124035 50 184 1.0 6.0 0.51 1.56 1.27 95 1009.6
20260506123535 50 282 1.0 10.0 0.45 1.49 1.20 95 1009.9
20260506123048 50 228 1.0 16.0 0.37 1.40 1.11 94 1009.9
20260506122535 50 294 5.0 16.0 0.32 1.36 1.07 93 1010.0
20260506122034 51 329 2.0 9.0 0.27 1.31 1.02 94 1009.9
20260506121547 51 345 2.0 9.0 0.27 1.31 1.02 94 1009.5
20260506121035 51 292 5.0 9.0 0.27 1.31 1.02 94 1009.3
20260506120535 52 254 1.0 6.0 0.18 1.22 0.93 94 1008.8
20260506120053 52 331 1.0 9.0 0.11 1.14 0.85 94 1008.7
20260506115534 52 269 0.0 9.0 0.06 1.10 0.81 93 1009.1
20260506115034 53 277 2.0 9.0 0.04 1.08 0.79 93 1008.8
20260506114546 53 0 0.0 3.0 0.02 1.06 0.77 93 1008.5
20260506114034 53 327 1.0 4.0 0.00 1.04 0.75 93 1008.2
20260506113534 53 0 0.0 6.0 0.00 1.03 0.74 93 1008.3
20260506113049 53 73 1.0 7.0 0.02 1.03 0.74 93 1008.2
20260506112534 53 47 1.0 7.0 0.03 1.03 0.74 93 1008.1
20260506112034 53 57 2.0 5.0 0.03 1.03 0.74 93 1008.2
20260506111549 53 82 1.0 7.0 0.03 1.03 0.74 93 1008.2
20260506111037 53 5 3.0 7.0 0.03 1.03 0.74 93 1008.2
20260506110535 53 98 2.0 6.0 0.03 1.03 0.74 93 1008.2
20260506110053 53 76 0.0 6.0 0.03 1.03 0.74 93 1008.2
20260506105535 53 77 3.0 9.0 0.03 1.05 0.74 93 1008.5
20260506105035 53 38 4.0 9.0 0.03 1.05 0.74 93 1008.8
20260506104544 53 36 1.0 6.0 0.03 1.05 0.74 93 1008.9
20260506104034 54 182 1.0 6.0 0.03 1.05 0.74 94 1008.9
20260506103535 54 52 2.0 6.0 0.02 1.04 0.74 94 1008.8
20260506103047 53 344 1.0 5.0 0.00 1.03 0.72 95 1008.8
20260506102535 53 61 2.0 5.0 0.00 1.02 0.71 94 1008.9
20260506102035 53 169 0.0 2.0 0.00 1.02 0.71 94 1008.9
20260506101553 53 144 0.0 3.0 0.00 1.02 0.71 94 1008.8
20260506101036 53 0 0.0 3.0 0.00 1.02 0.71 93 1008.8
20260506100535 53 319 1.0 3.0 0.00 1.02 0.71 94 1008.7
20260506100048 53 0 0.0 7.0 0.00 1.02 0.71 94 1008.5
20260506095538 53 39 1.0 7.0 0.00 1.03 0.71 94 1008.5
20260506095035 53 57 3.0 7.0 0.00 1.03 0.71 93 1008.5
20260506094554 54 122 2.0 6.0 0.00 1.03 0.71 93 1008.4
20260506094037 54 128 1.0 4.0 0.00 1.03 0.71 94 1008.2
20260506093540 54 164 0.0 5.0 0.00 1.03 0.71 94 1008.2
20260506093053 54 290 1.0 8.0 0.00 1.03 0.71 95 1008.2
20260506092535 53 28 2.0 8.0 0.00 1.03 0.70 96 1008.2
20260506092035 53 15 3.0 9.0 0.00 1.03 0.70 96 1008.2
20260506091547 53 5 4.0 9.0 0.00 1.03 0.70 96 1008.4
20260506091040 53 65 4.0 8.0 0.00 1.03 0.70 96 1008.4
20260506090536 53 80 3.0 8.0 0.00 1.03 0.70 96 1008.2
20260506090047 53 101 2.0 8.0 0.00 1.03 0.70 96 1008.2
20260506085536 53 84 3.0 7.0 0.00 1.11 0.70 97 1008.1
20260506085036 53 54 2.0 8.0 0.00 1.11 0.70 97 1008.0
20260506084550 53 101 3.0 8.0 0.00 1.11 0.70 97 1008.0
20260506084036 53 77 3.0 6.0 0.00 1.11 0.70 97 1008.0
20260506083539 53 69 2.0 6.0 0.00 1.11 0.70 97 1008.1
20260506083048 53 115 1.0 8.0 0.00 1.11 0.70 97 1008.3
20260506082542 52 0 1.0 8.0 0.00 1.11 0.70 97 1008.2
20260506082040 52 80 3.0 8.0 0.00 1.11 0.70 97 1008.3
20260506081548 52 97 3.0 7.0 0.00 1.11 0.70 97 1008.3
20260506081038 52 113 2.0 5.0 0.00 1.11 0.70 97 1008.3
20260506080537 52 81 1.0 5.0 0.00 1.11 0.70 97 1008.4
20260506073051 51 112 1.0 14.0 0.01 1.28 0.70 97 1008.7
20260506072537 50 40 3.0 14.0 0.03 1.28 0.70 97 1008.7
20260506072038 51 51 6.0 13.0 0.03 1.27 0.70 97 1008.8
20260506071604 51 9 6.0 10.0 0.04 1.27 0.70 97 1008.9
20260506071033 51 109 2.0 10.0 0.06 1.27 0.70 97 1008.9
20260506070538 51 355 3.0 10.0 0.07 1.27 0.70 97 1008.7
20260506062039 51 82 3.0 8.0 0.12 1.30 0.66 97 1009.0
20260506061546 51 121 2.0 4.0 0.11 1.29 0.65 97 1009.0
20260506061037 51 82 1.0 3.0 0.11 1.27 0.63 97 1009.0
20260506060538 51 14 0.0 3.0 0.11 1.26 0.62 97 1009.1
20260506051036 51 22 0.0 2.0 0.11 1.19 0.52 97 1009.3
20260506050535 51 0 0.0 2.0 0.11 1.18 0.51 97 1009.6
20260506045035 51 69 1.0 3.0 0.11 1.15 0.48 97 1009.6
20260506044551 51 0 0.0 4.0 0.13 1.15 0.48 97 1009.6
20260506044035 51 175 1.0 5.0 0.13 1.14 0.47 97 1009.7
20260506043540 51 44 1.0 5.0 0.14 1.14 0.46 97 1009.6
20260506043045 51 13 2.0 5.0 0.14 1.12 0.44 97 1009.6
20260506042535 51 0 2.0 5.0 0.16 1.11 0.44 97 1009.7
20260506042038 51 59 0.0 2.0 0.16 1.11 0.43 97 1009.7
20260506041555 51 0 0.0 2.0 0.15 1.10 0.42 97 1009.8
20260506041035 51 114 1.0 3.0 0.15 1.08 0.40 97 1009.9
20260506040535 51 106 0.0 3.0 0.14 1.07 0.40 97 1009.7
20260506040048 51 109 1.0 3.0 0.14 1.06 0.38 97 1009.7
20260506035538 51 0 0.0 5.0 0.14 1.04 0.37 97 1009.7
20260506035038 51 61 1.0 5.0 0.14 1.03 0.36 97 1009.7
20260506034545 51 103 2.0 5.0 0.14 1.02 0.34 97 1009.8
20260506034036 51 92 2.0 5.0 0.14 1.00 0.33 97 1010.0
20260506033537 51 110 1.0 4.0 0.13 1.00 0.32 97 1010.0
20260506033048 51 78 2.0 4.0 0.11 0.97 0.29 97 1010.1
20260506032535 51 89 1.0 4.0 0.08 0.95 0.27 97 1010.3
20260506032035 51 105 0.0 4.0 0.07 0.94 0.26 97 1010.2
20260506031546 51 70 2.0 4.0 0.07 0.94 0.26 97 1010.2
20260506031035 51 109 0.0 4.0 0.06 0.92 0.25 97 1010.3
20260506030536 51 93 1.0 4.0 0.06 0.92 0.25 97 1010.5
20260506030052 51 102 0.0 5.0 0.04 0.91 0.23 97 1010.6
20260506025535 51 66 2.0 5.0 0.03 0.89 0.22 97 1010.5
20260506025035 51 78 1.0 3.0 0.03 0.88 0.21 97 1010.6
20260506024549 51 5 0.0 3.0 0.02 0.88 0.20 97 1010.6
20260506024035 51 0 0.0 3.0 0.00 0.86 0.18 97 1010.5
20260506023536 51 46 1.0 3.0 0.00 0.86 0.18 97 1010.7
20260506023048 51 95 1.0 4.0 0.00 0.86 0.18 97 1010.8
20260506022535 51 106 1.0 4.0 0.00 0.86 0.18 97 1011.0
20260506022035 51 144 2.0 4.0 0.00 0.86 0.18 97 1011.0
20260506021548 51 112 0.0 2.0 0.00 0.86 0.18 97 1011.0
20260506021034 51 0 0.0 2.0 0.00 0.86 0.18 97 1010.9
20260506020534 51 0 0.0 4.0 0.00 0.86 0.18 97 1011.0
20260506020041 51 0 0.0 4.0 0.00 0.86 0.18 97 1011.1
20260506015535 51 109 1.0 3.0 0.00 0.85 0.18 97 1011.0
20260506015037 51 153 0.0 3.0 0.00 0.85 0.18 97 1011.0
20260506014549 51 0 0.0 2.0 0.00 0.85 0.18 97 1011.0
20260506014034 51 153 0.0 2.0 0.00 0.85 0.18 97 1011.0
20260506013534 51 0 0.0 1.0 0.03 0.85 0.18 97 1011.0
20260506013043 51 153 0.0 1.0 0.11 0.85 0.18 97 1011.1
20260506012534 51 0 0.0 1.0 0.13 0.85 0.18 97 1011.2
20260506012035 51 0 0.0 2.0 0.14 0.85 0.18 97 1011.2
20260506011547 51 0 0.0 2.0 0.14 0.85 0.18 97 1011.1
20260506011033 51 153 0.0 2.0 0.14 0.85 0.18 97 1011.3
20260506010537 51 0 0.0 0.0 0.15 0.85 0.18 97 1011.4
20260506010047 51 0 0.0 0.0 0.15 0.85 0.18 97 1011.6
20260506005537 51 0 0.0 1.0 0.15 0.85 0.18 97 1011.7
20260506005034 51 0 0.0 2.0 0.15 0.85 0.18 97 1011.5
20260506004544 51 0 0.0 2.0 0.15 0.85 0.18 97 1011.6
20260506004034 51 0 0.0 1.0 0.15 0.85 0.17 97 1011.6
20260506003535 51 0 0.0 1.0 0.12 0.81 0.14 97 1011.6
20260506003049 51 0 0.0 2.0 0.04 0.74 0.06 97 1011.7
20260506002535 51 0 0.0 2.0 0.03 0.72 0.04 97 1011.8
20260506002034 51 0 0.0 2.0 0.01 0.70 0.03 97 1011.7
20260506001608 51 0 0.0 2.0 0.01 0.70 0.03 97 1012.0
20260506001035 51 0 0.0 2.0 0.01 0.70 0.03 97 1012.0
20260506000537 51 153 0.0 0.0 0.00 0.70 0.02 97 1012.0
20260506000050 51 0 0.0 3.0 0.00 0.70 0.02 97 1012.1
20260505235535 51 0 0.0 3.0 0.00 0.70 0.02 97 1012.2
20260505235035 51 0 2.0 3.0 0.00 0.70 0.02 97 1012.2
20260505234550 51 254 0.0 2.0 0.01 0.70 0.02 97 1012.1
20260505234037 51 0 0.0 1.0 0.00 0.69 0.01 97 1012.1
20260505233534 51 0 0.0 1.0 0.00 0.69 0.01 97 1012.3
20260505233053 51 0 0.0 1.0 0.00 0.69 0.01 97 1012.2
20260505232534 51 0 0.0 2.0 0.00 0.69 0.01 97 1012.5
20260505232035 51 0 0.0 3.0 0.01 0.69 0.01 97 1012.7
20260505231552 51 252 0.0 3.0 0.01 0.69 0.01 97 1012.6
20260505231038 51 252 0.0 3.0 0.01 0.69 0.01 97 1012.7
20260505230536 51 252 1.0 3.0 0.01 0.69 0.01 97 1012.8
20260505230049 51 246 1.0 2.0 0.01 0.69 0.01 97 1012.8
20260505225537 51 0 0.0 2.0 0.01 0.69 0.01 97 1012.7
20260505225035 51 0 1.0 2.0 0.01 0.69 0.01 97 1012.8
20260505224553 51 247 0.0 3.0 0.00 0.68 0.00 97 1012.7
20260505224034 51 0 1.0 3.0 0.00 0.68 0.00 97 1012.7
20260505223534 51 246 0.0 3.0 0.01 0.68 0.00 97 1012.7
20260505223057 51 0 0.0 3.0 0.02 0.68 0.00 97 1012.7
20260505222534 51 246 1.0 3.0 0.03 0.68 0.00 97 1012.7
20260505222034 51 210 0.0 2.0 0.03 0.67 0.00 97 1012.8
20260505221554 51 210 1.0 2.0 0.03 0.67 0.00 97 1012.9
20260505221036 51 0 0.0 2.0 0.03 0.67 0.00 97 1012.9
20260505220537 51 192 0.0 1.0 0.04 0.67 0.00 97 1012.9
20260505220051 51 0 0.0 1.0 0.06 0.67 0.00 97 1013.0
20260505215535 51 0 0.0 1.0 0.07 0.67 0.67 97 1013.1
20260505215035 51 0 0.0 2.0 0.08 0.67 0.67 97 1013.1
20260505214559 51 0 0.0 2.0 0.10 0.67 0.67 97 1013.1
20260505214034 51 227 0.0 2.0 0.11 0.67 0.67 97 1013.2
20260505213535 51 0 0.0 3.0 0.11 0.66 0.66 97 1013.2
20260505213058 51 0 0.0 3.0 0.11 0.66 0.66 97 1013.3
20260505212534 51 232 0.0 3.0 0.11 0.65 0.65 97 1013.3
20260505212035 51 0 0.0 1.0 0.10 0.64 0.64 97 1013.3
20260505211558 51 0 0.0 2.0 0.10 0.64 0.64 97 1013.5